Hourly Weather Kozlovo Ozero

Today, 24 October, Saturday

Time Temperature Precipitation Wind Pressure Humidity
00:00 +8°C° 0 mm 4 mps 733 mmHg 91%
01:00 +7°C° 0 mm 4 mps 733 mmHg 92%
02:00 +7°C° 0 mm 4 mps 733 mmHg 92%
03:00 +6°C° 0 mm 4 mps 734 mmHg 93%
04:00 +7°C° 0 mm 3 mps 734 mmHg 94%
05:00 +7°C° 0 mm 3 mps 734 mmHg 94%
06:00 +7°C° 0 mm 3 mps 734 mmHg 94%
07:00 +7°C° 0 mm 3 mps 735 mmHg 94%
08:00 +7°C° 0 mm 3 mps 735 mmHg 94%
09:00 +8°C° 0 mm 3 mps 735 mmHg 89%
10:00 +9°C° 0 mm 3 mps 735 mmHg 84%
11:00 +10°C° 0 mm 3 mps 735 mmHg 78%
12:00 +10°C° 0 mm 3 mps 735 mmHg 77%
13:00 +10°C° 0 mm 3 mps 735 mmHg 76%
14:00 +10°C° 0 mm 3 mps 735 mmHg 74%
15:00 +10°C° 0.1 mm 3 mps 735 mmHg 79%
16:00 +9°C° 0.1 mm 2 mps 735 mmHg 84%
17:00 +8°C° 0.1 mm 2 mps 735 mmHg 89%
18:00 +8°C° 0.7 mm 2 mps 735 mmHg 91%
19:00 +8°C° 0.7 mm 2 mps 735 mmHg 92%
20:00 +8°C° 0.7 mm 2 mps 735 mmHg 94%
21:00 +8°C° 0.1 mm 2 mps 735 mmHg 94%
22:00 +8°C° 0.1 mm 2 mps 735 mmHg 93%
23:00 +8°C° 0.1 mm 2 mps 735 mmHg 93%

Tomorrow, 25 October, Sunday

Time Temperature Precipitation Wind Pressure Humidity
00:00 +7°C° 0 mm 3 mps 735 mmHg 94%
01:00 +7°C° 0 mm 3 mps 735 mmHg 95%
02:00 +5°C° 0 mm 3 mps 736 mmHg 96%
03:00 +5°C° 0 mm 3 mps 736 mmHg 96%
04:00 +5°C° 0 mm 3 mps 736 mmHg 96%
05:00 +5°C° 0 mm 3 mps 736 mmHg 96%
06:00 +5°C° 0.3 mm 3 mps 736 mmHg 95%
07:00 +5°C° 0.3 mm 3 mps 737 mmHg 94%
08:00 +7°C° 0.3 mm 2 mps 737 mmHg 94%
09:00 +8°C° 0 mm 3 mps 738 mmHg 89%
10:00 +8°C° 0 mm 3 mps 738 mmHg 85%
11:00 +9°C° 0 mm 3 mps 738 mmHg 81%
12:00 +10°C° 0 mm 3 mps 739 mmHg 79%
13:00 +10°C° 0 mm 3 mps 739 mmHg 77%
14:00 +10°C° 0 mm 4 mps 740 mmHg 74%
15:00 +9°C° 0 mm 3 mps 740 mmHg 79%
16:00 +8°C° 0 mm 3 mps 740 mmHg 84%
17:00 +7°C° 0 mm 2 mps 740 mmHg 88%
18:00 +7°C° 0 mm 2 mps 741 mmHg 89%
19:00 +7°C° 0 mm 2 mps 741 mmHg 89%
20:00 +7°C° 0 mm 2 mps 742 mmHg 90%
21:00 +6°C° 0 mm 2 mps 742 mmHg 90%
22:00 +6°C° 0 mm 2 mps 742 mmHg 91%
23:00 +7°C° 0 mm 1 mps 742 mmHg 91%

Day after tomorrow, 26 October, Monday

Time Temperature Precipitation Wind Pressure Humidity
00:00 +6°C° 0 mm 1 mps 742 mmHg 92%
01:00 +6°C° 0 mm 1 mps 743 mmHg 92%
02:00 +6°C° 0 mm 1 mps 743 mmHg 93%
03:00 +6°C° 0 mm 1 mps 743 mmHg 93%
04:00 +6°C° 0 mm 1 mps 744 mmHg 93%
05:00 +6°C° 0 mm 1 mps 744 mmHg 93%
06:00 +7°C° 0 mm 1 mps 744 mmHg 92%
07:00 +7°C° 0 mm 1 mps 744 mmHg 92%
08:00 +8°C° 0 mm 1 mps 744 mmHg 91%
09:00 +9°C° 0 mm 1 mps 745 mmHg 88%
10:00 +9°C° 0 mm 1 mps 745 mmHg 86%
11:00 +10°C° 0 mm 1 mps 745 mmHg 83%
12:00 +10°C° 0 mm 1 mps 745 mmHg 82%
13:00 +11°C° 0 mm 1 mps 745 mmHg 81%
14:00 +11°C° 0 mm 1 mps 745 mmHg 80%
15:00 +10°C° 0 mm 1 mps 745 mmHg 81%
16:00 +8°C° 0 mm 2 mps 745 mmHg 82%
17:00 +8°C° 0 mm 2 mps 745 mmHg 83%
18:00 +7°C° 0 mm 2 mps 745 mmHg 85%
19:00 +7°C° 0 mm 2 mps 745 mmHg 86%
20:00 +6°C° 0 mm 2 mps 745 mmHg 88%
21:00 +6°C° 0 mm 2 mps 745 mmHg 88%
22:00 +6°C° 0 mm 2 mps 745 mmHg 89%
23:00 +5°C° 0 mm 3 mps 746 mmHg 89%

, 27 October, Tuesday

Time Temperature Precipitation Wind Pressure Humidity
00:00 +5°C° 0 mm 3 mps 746 mmHg 90%
01:00 +5°C° 0 mm 3 mps 746 mmHg 90%
02:00 +5°C° 0 mm 3 mps 746 mmHg 91%
03:00 +4°C° 0 mm 3 mps 746 mmHg 92%
04:00 +4°C° 0 mm 3 mps 746 mmHg 93%
05:00 +4°C° 0 mm 3 mps 746 mmHg 93%
06:00 +4°C° 0 mm 3 mps 746 mmHg 93%
07:00 +5°C° 0 mm 3 mps 746 mmHg 93%
08:00 +5°C° 0 mm 4 mps 746 mmHg 92%
09:00 +6°C° 0 mm 4 mps 746 mmHg 88%
10:00 +7°C° 0 mm 4 mps 746 mmHg 84%
11:00 +10°C° 0 mm 4 mps 746 mmHg 79%
12:00 +10°C° 0 mm 4 mps 746 mmHg 78%
13:00 +10°C° 0 mm 4 mps 746 mmHg 77%
14:00 +11°C° 0 mm 4 mps 746 mmHg 75%
15:00 +10°C° 0 mm 4 mps 746 mmHg 79%
16:00 +8°C° 0 mm 4 mps 746 mmHg 83%
17:00 +7°C° 0 mm 4 mps 746 mmHg 87%
18:00 +6°C° 0 mm 4 mps 746 mmHg 87%
19:00 +6°C° 0 mm 4 mps 746 mmHg 88%
20:00 +6°C° 0 mm 4 mps 746 mmHg 88%
21:00 +6°C° 0 mm 4 mps 746 mmHg 89%
22:00 +5°C° 0 mm 4 mps 746 mmHg 90%
23:00 +5°C° 0 mm 4 mps 746 mmHg 90%

27 October, Tuesday

Time Temperature Precipitation Wind Pressure Humidity
00:00 +5°C° 0 mm 3 mps 746 mmHg 90%
01:00 +5°C° 0 mm 3 mps 746 mmHg 90%
02:00 +5°C° 0 mm 3 mps 746 mmHg 91%
03:00 +4°C° 0 mm 3 mps 746 mmHg 92%
04:00 +4°C° 0 mm 3 mps 746 mmHg 93%
05:00 +4°C° 0 mm 3 mps 746 mmHg 93%
06:00 +4°C° 0 mm 3 mps 746 mmHg 93%
07:00 +5°C° 0 mm 3 mps 746 mmHg 93%
08:00 +5°C° 0 mm 4 mps 746 mmHg 92%
09:00 +6°C° 0 mm 4 mps 746 mmHg 88%
10:00 +7°C° 0 mm 4 mps 746 mmHg 84%
11:00 +10°C° 0 mm 4 mps 746 mmHg 79%
12:00 +10°C° 0 mm 4 mps 746 mmHg 78%
13:00 +10°C° 0 mm 4 mps 746 mmHg 77%
14:00 +11°C° 0 mm 4 mps 746 mmHg 75%
15:00 +10°C° 0 mm 4 mps 746 mmHg 79%
16:00 +8°C° 0 mm 4 mps 746 mmHg 83%
17:00 +7°C° 0 mm 4 mps 746 mmHg 87%
18:00 +6°C° 0 mm 4 mps 746 mmHg 87%
19:00 +6°C° 0 mm 4 mps 746 mmHg 88%
20:00 +6°C° 0 mm 4 mps 746 mmHg 88%
21:00 +6°C° 0 mm 4 mps 746 mmHg 89%
22:00 +5°C° 0 mm 4 mps 746 mmHg 90%
23:00 +5°C° 0 mm 4 mps 746 mmHg 90%

28 October, Wednesday

Time Temperature Precipitation Wind Pressure Humidity
00:00 +5°C° 0 mm 4 mps 746 mmHg 90%
01:00 +5°C° 0 mm 4 mps 746 mmHg 90%
02:00 +5°C° 0 mm 4 mps 746 mmHg 90%
03:00 +4°C° 0 mm 4 mps 745 mmHg 90%
04:00 +4°C° 0 mm 4 mps 745 mmHg 90%
05:00 +4°C° 0 mm 4 mps 745 mmHg 90%
06:00 +4°C° 0 mm 4 mps 745 mmHg 89%
07:00 +4°C° 0 mm 4 mps 746 mmHg 87%
08:00 +4°C° 0 mm 4 mps 746 mmHg 86%
09:00 +5°C° 0 mm 4 mps 746 mmHg 81%
10:00 +7°C° 0 mm 4 mps 746 mmHg 77%
11:00 +8°C° 0 mm 5 mps 746 mmHg 73%
12:00 +8°C° 0 mm 5 mps 746 mmHg 71%
13:00 +9°C° 0 mm 5 mps 746 mmHg 70%
14:00 +10°C° 0 mm 4 mps 746 mmHg 69%
15:00 +8°C° 0 mm 4 mps 745 mmHg 73%
16:00 +7°C° 0 mm 4 mps 745 mmHg 77%
17:00 +6°C° 0 mm 4 mps 745 mmHg 81%
18:00 +6°C° 0 mm 4 mps 746 mmHg 82%
19:00 +6°C° 0 mm 4 mps 746 mmHg 83%
20:00 +5°C° 0 mm 3 mps 746 mmHg 84%
21:00 +5°C° 0 mm 3 mps 746 mmHg 85%
22:00 +4°C° 0 mm 3 mps 746 mmHg 86%
23:00 +4°C° 0 mm 3 mps 746 mmHg 86%

29 October, Thursday

Time Temperature Precipitation Wind Pressure Humidity
00:00 +4°C° 0 mm 3 mps 746 mmHg 87%
01:00 +3°C° 0 mm 3 mps 746 mmHg 87%
02:00 +3°C° 0 mm 3 mps 746 mmHg 87%
03:00 +2°C° 0 mm 3 mps 746 mmHg 87%
04:00 +2°C° 0 mm 3 mps 745 mmHg 87%
05:00 +2°C° 0 mm 3 mps 745 mmHg 86%
06:00 +2°C° 0 mm 3 mps 745 mmHg 83%
07:00 +2°C° 0 mm 3 mps 745 mmHg 79%
08:00 +2°C° 0 mm 3 mps 745 mmHg 75%
09:00 +3°C° 0 mm 3 mps 745 mmHg 69%
10:00 +4°C° 0 mm 3 mps 745 mmHg 64%
11:00 +5°C° 0 mm 3 mps 745 mmHg 58%
12:00 +7°C° 0 mm 3 mps 745 mmHg 58%
13:00 +7°C° 0 mm 3 mps 745 mmHg 58%
14:00 +7°C° 0 mm 3 mps 744 mmHg 59%
15:00 +5°C° 0 mm 3 mps 744 mmHg 64%
16:00 +4°C° 0 mm 3 mps 744 mmHg 70%
17:00 +3°C° 0 mm 3 mps 744 mmHg 76%
18:00 +3°C° 0 mm 3 mps 744 mmHg 77%
19:00 +2°C° 0 mm 3 mps 744 mmHg 79%
20:00 +2°C° 0 mm 3 mps 744 mmHg 81%
21:00 +3°C° 0 mm 2 mps 744 mmHg 82%
22:00 +2°C° 0 mm 2 mps 744 mmHg 84%
23:00 +2°C° 0 mm 2 mps 743 mmHg 86%
Show more